EW7240 Weather Reports


time (UTC)temp
C
wind
direction
speed
KPH
gust
KPH
rain 1hr
cm
rain 24hr
cm
rain mn
cm
humidity
%
barometer
mb
20260906213111 29 137 22.5 32.2 0.00 0.00 0.00 46 1005.0
20260906211508 29 130 22.5 30.6 0.00 0.00 0.00 45 1005.2
20260906210008 28 117 24.1 32.2 0.00 0.00 0.00 49 1005.3
20260906204503 28 126 22.5 33.8 0.00 0.00 0.00 48 1005.5
20260906203004 28 113 17.7 35.4 0.00 0.00 0.00 50 1005.5
20260906201501 28 131 14.5 29.0 0.00 0.00 0.00 50 1005.6
20260906200108 28 107 17.7 29.0 0.00 0.00 0.00 50 1005.7
20260906194558 28 107 17.7 29.0 0.00 0.00 0.00 50 1005.9
20260906193058 28 90 16.1 25.7 0.00 0.00 0.00 50 1006.1
20260906191554 28 91 11.3 20.9 0.00 0.00 0.00 54 1006.5
20260906184603 26 95 9.7 17.7 0.00 0.00 0.00 55 1007.0
20260906183051 27 117 11.3 17.7 0.00 0.00 0.00 51 1007.2
20260906181550 27 59 6.4 22.5 0.00 0.00 0.00 54 1007.5
20260906180046 27 77 9.7 17.7 0.00 0.00 0.00 50 1007.6
20260906174545 26 69 4.8 12.9 0.00 0.00 0.00 52 1007.9
20260906173042 26 70 6.4 19.3 0.00 0.00 0.00 52 1008.1
20260906171545 26 32 6.4 12.9 0.00 0.00 0.00 53 1008.3
20260906170038 25 119 1.6 11.3 0.00 0.00 0.00 54 1008.4
20260906164539 25 97 4.8 11.3 0.00 0.00 0.00 54 1008.4
20260906163032 25 106 4.8 9.7 0.00 0.00 0.00 55 1008.4
20260906161531 24 55 4.8 16.1 0.00 0.00 0.00 55 1008.7
20260906160028 23 5 6.4 14.5 0.00 0.00 0.00 55 1008.7
20260906154529 23 5 6.4 20.9 0.00 0.00 0.00 55 1008.7
20260906153026 22 347 9.7 16.1 0.00 0.00 0.00 57 1008.6
20260906151521 22 351 9.7 14.5 0.00 0.00 0.00 58 1008.7
20260906150015 21 294 9.7 14.5 0.00 0.00 0.00 61 1008.7
20260906144514 21 281 4.8 11.3 0.00 0.00 0.00 62 1008.5
20260906143012 20 309 6.4 9.7 0.00 0.00 0.00 64 1008.5
20260906141514 19 234 0.0 4.8 0.00 0.00 0.00 68 1008.5
20260906140002 18 225 0.0 3.2 0.00 0.00 0.00 71 1008.4
20260906134500 17 225 1.6 4.8 0.00 0.00 0.00 72 1008.3
20260906133100 16 225 1.6 6.4 0.00 0.00 0.00 78 1008.3
20260906131601 15 226 0.0 3.2 0.00 0.00 0.00 81 1008.3
20260906130146 14 226 1.6 3.2 0.00 0.00 0.00 85 1008.1
20260906124608 13 225 0.0 1.6 0.00 0.00 0.00 88 1008.1
20260906123057 13 225 0.0 4.8 0.00 0.00 0.00 88 1007.7
20260906121605 13 225 1.6 4.8 0.00 0.00 0.00 87 1007.7
20260906120105 13 224 0.0 4.8 0.00 0.00 0.00 87 1007.6
20260906114549 14 224 0.0 0.0 0.00 0.00 0.00 87 1007.6
20260906113053 14 225 0.0 3.2 0.00 0.00 0.00 86 1007.6
20260906111546 14 165 1.6 8.0 0.00 0.00 0.00 85 1007.5
20260906110044 15 165 6.4 8.0 0.00 0.00 0.00 86 1007.5
20260906104543 15 130 4.8 8.0 0.00 0.00 0.00 85 1007.5
20260906103051 14 224 3.2 4.8 0.00 0.00 0.00 87 1007.3
20260906101541 14 224 1.6 4.8 0.00 0.00 0.00 87 1007.1
20260906100039 14 225 0.0 3.2 0.00 0.00 0.00 86 1007.0
20260906094535 15 225 3.2 8.0 0.00 0.00 0.00 84 1007.0
20260906093034 15 290 1.6 9.7 0.00 0.00 0.00 83 1007.0
20260906091531 16 186 12.9 16.1 0.00 0.00 0.00 83 1006.7
20260906090031 16 145 11.3 17.7 0.00 0.00 0.00 83 1006.8
20260906084528 16 143 12.9 17.7 0.00 0.00 0.00 82 1006.9
20260906083025 16 148 9.7 14.5 0.00 0.00 0.00 81 1006.9
20260906081526 17 146 6.4 12.9 0.00 0.00 0.00 80 1006.9
20260906080028 16 175 3.2 4.8 0.00 0.00 0.00 81 1006.9
20260906074522 16 175 0.0 9.7 0.00 0.00 0.00 82 1006.9
20260906073021 16 221 4.8 11.3 0.00 0.00 0.00 82 1006.9
20260906071518 16 236 0.0 6.4 0.00 0.00 0.00 79 1007.1
20260906070014 17 304 4.8 8.0 0.00 0.00 0.00 77 1007.0
20260906064517 17 304 1.6 6.4 0.00 0.00 0.00 77 1007.2
20260906063012 17 155 1.6 12.9 0.00 0.00 0.00 76 1007.2
20260906061519 18 173 11.3 17.7 0.00 0.00 0.00 74 1006.7
20260906060004 18 159 14.5 17.7 0.00 0.00 0.00 75 1006.4
20260906054508 18 163 12.9 16.1 0.00 0.00 0.00 74 1006.5
20260906053001 19 166 11.3 14.5 0.00 0.00 0.00 72 1006.5
20260906051500 20 165 12.9 17.7 0.00 0.00 0.00 71 1006.5
20260906050100 19 139 14.5 19.3 0.00 0.00 0.00 72 1006.4
20260906044600 18 178 6.4 9.7 0.00 0.00 0.00 74 1006.5
20260906043102 19 142 11.3 17.7 0.00 0.00 0.00 73 1006.3
20260906041559 20 186 12.9 17.7 0.00 0.00 0.00 73 1006.2
20260906040059 20 166 12.9 16.1 0.00 0.00 0.00 74 1006.1
20260906034604 20 158 11.3 16.1 0.00 0.00 0.00 73 1006.0
20260906033057 21 169 12.9 19.3 0.00 0.00 0.00 72 1006.0
20260906031556 21 140 14.5 19.3 0.00 0.00 0.00 71 1005.9
20260906030056 21 156 9.7 19.3 0.00 0.00 0.00 70 1005.7
20260906024555 22 155 12.9 19.3 0.00 0.00 0.00 68 1005.5
20260906023059 23 138 14.5 22.5 0.00 0.00 0.00 65 1005.5
20260906021554 23 138 20.9 32.2 0.00 0.00 0.00 63 1005.6
20260906020054 24 136 19.3 29.0 0.00 0.00 0.00 60 1005.6
20260906014555 25 155 24.1 37.0 0.00 0.00 0.00 60 1005.5
20260906013053 25 111 6.4 11.3 0.00 0.00 0.00 54 1005.1
20260906011550 26 36 3.2 6.4 0.00 0.00 0.00 48 1005.0
20260906010050 27 306 1.6 3.2 0.00 0.00 0.00 43 1004.9
20260906004550 29 304 0.0 1.6 0.00 0.00 0.00 40 1004.9
20260906003049 29 305 1.6 4.8 0.00 0.00 0.00 37 1004.8
20260906001549 30 305 1.6 4.8 0.00 0.00 0.00 37 1004.8
20260906000048 30 305 3.2 6.4 0.00 0.00 0.00 36 1004.9
20260905234548 30 264 1.6 3.2 0.00 0.00 0.00 35 1004.8
20260905233047 30 264 1.6 6.4 0.00 0.00 0.00 33 1004.8
20260905231547 30 344 1.6 4.8 0.00 0.00 0.00 35 1004.7
20260905230145 30 355 3.2 8.0 0.00 0.00 0.00 35 1004.8
20260905224544 29 298 3.2 12.9 0.00 0.00 0.00 36 1004.8
20260905223043 28 264 3.2 6.4 0.00 0.00 0.00 39 1004.9
20260905221544 30 314 4.8 9.7 0.00 0.00 0.00 37 1004.9
20260905220042 30 194 1.6 6.4 0.00 0.00 0.00 33 1004.9
20260905214540 30 121 6.4 12.9 0.00 0.00 0.00 35 1004.9